Regional Weather Roundup
Issued by NWS

Home | Current Version | Previous Version | Graphics & Text | Print | Product List | Glossary On
Versions: 1 2 3 4 5 6 7 8 9 10 11 12 13 14 15 16 17 18 19 20 21 22 23 24 25 26 27 28 29 30 31 32 33 34 35 36 37 38 39 40 41 42 43 44 45 46 47 48 49 50
000
ASUS43 KFSD 181702
RWRSD

WEATHER ROUNDUP FOR SOUTH DAKOTA
NATIONAL WEATHER SERVICE SIOUX FALLS SD
1100 AM CST THU JAN 18 2018

NOTE: "FAIR" INDICATES FEW OR NO CLOUDS BELOW 12,000 FEET WITH NO
SIGNIFICANT WEATHER AND/OR OBSTRUCTIONS TO VISIBILITY.


SDZ001>005-009-010-012>017-181800-
NORTHWEST AND NORTH CENTRAL SOUTH DAKOTA

CITY           SKY/WX    TMP DP  RH WIND       PRES   REMARKS
BUFFALO          N/A     39  24  55 W13       29.78R
FAITH            N/A     36  24  62 SW9       29.85S
MOBRIDGE       CLOUDY    29  22  75 SE3       29.82R
$$

SDZ012>016-024>037-041>051-057-063-072>074-181800-
SOUTHWEST AND SOUTH CENTRAL SOUTH DAKOTA

CITY           SKY/WX    TMP DP  RH WIND       PRES   REMARKS
RAPID CTY ARPT CLOUDY    47  22  37 W5        29.90R
PIERRE         CLOUDY    31  23  72 W12       29.87S WCI  22
CUSTER         CLOUDY    47   4  17 VRB5      29.95S
ELLSWORTH AFB  DRIZZLE   45  21  39 W6        29.89
PHILIP         CLOUDY    35  26  69 W12       29.89F WCI  27
PINE RIDGE     CLOUDY    42  25  50 W7        29.97S
SPEARFISH        N/A     46  19  34 NW5       29.89F
WINNER         FAIR      42  26  53 SW7       29.90F
$$

SDZ004>011-016>023-039-040-181800-
NORTHEAST SOUTH DAKOTA

CITY           SKY/WX    TMP DP  RH WIND       PRES   REMARKS
ABERDEEN       PTSUNNY   27  22  81 S7        29.85F WCI  19
WATERTOWN      CLOUDY    33  25  72 S9        29.84S WCI  25
BROOKINGS      CLOUDY    32  23  69 S9        29.88F WCI  24
SISSETON         N/A     42  24  49 W9        29.82R
$$

SDZ017-020-022-023-036>040-048>070-181800-
SOUTHEAST SOUTH DAKOTA

CITY           SKY/WX    TMP DP  RH WIND       PRES   REMARKS
SIOUX FALLS    CLOUDY    32  24  72 SW6       29.92F WCI  26
HURON          CLOUDY    29  23  78 S7        29.87F WCI  22
CHAMBERLAIN    CLOUDY    32  26  78 SW3       29.91R
MITCHELL       CLOUDY    28  22  78 S6        29.92F WCI  22
YANKTON        CLOUDY    34  22  61 S3        29.96S
$$

ABBREVIATIONS USED IN REMARKS
   TC - TEMPERATURE IN CELSIUS
  WCI - WIND CHILL INDEX
   HX - HEAT INDEX
  VSB - VISIBILITY




USA.gov is the U.S. government's official web portal to all federal, state and local government web resources and services.